Change the Weather History Date:

Tuesday, November 5, 2013

  Actual Average Record
Temperature  
Mean Temperature 52 °F 48 °F  
Max Temperature 56 °F 57 °F 73 °F (2008)
Min Temperature 47 °F 40 °F 27 °F (1998)
Degree Days  
Heating Degree Days 13 17  
Month to date heating degree days 84 80  
Since 1 July heating degree days 497 472  
Cooling Degree Days 0 0  
Month to date cooling degree days 0 0  
Year to date cooling degree days 1006 1058  
Moisture  
Dew Point 42 °F    
Average Humidity 77    
Maximum Humidity 93    
Minimum Humidity 61    
Precipitation  
Precipitation 0.01 in 0.13 in 0.34 in (2002)
Month to date precipitation 0.02 0.66  
Year to date precipitation 36.07 34.67  
Sea Level Pressure  
Sea Level Pressure 30.28 in    
Wind  
Wind Speed 6 mph (SSE)    
Max Wind Speed 12 mph    
Max Gust Speed 18 mph    
Visibility 10 miles    
Events Rain    
T = Trace of Precipitation, MM = Missing Value Source: NWS Daily Summary

Daily Weather History Graph

Daily Weather History Graph

Search for Another Location

Airport or City:

Trip Planner

Search our weather history database for the weather conditions in past years. The results will help you decide how hot, cold, wet, or windy it might be!

Date:

Astronomy

Nov. 05, 2013 Rise Set
Actual Time 7:18 AM EST 5:38 PM EST
Civil Twilight 6:50 AM EST 6:06 PM EST
Nautical Twilight 6:18 AM EST 6:38 PM EST
Astronomical Twilight 5:46 AM EST 7:10 PM EST
Moon 9:33 AM EST (11/5) 7:39 PM EST (11/5)
Length of Visible Light 11h 16m
Length of Day
10h 19m
Waxing Crescent, 6% of the Moon is Illuminated
Nov 5
Waxing Crescent
Nov 10
First Quarter
Nov 17
Full
Nov 25
Last Quarter
Dec 2
New

Hourly Weather History & Observations

Time (EST) Temp. Dew Point Humidity Pressure Visibility Wind Dir Wind Speed Gust Speed Precip Events Conditions
12:53 AM 46.9 °F 39.0 °F 74% 30.30 in 10.0 mi Calm Calm - N/A   Clear
1:53 AM 48.0 °F 39.0 °F 71% 30.30 in 10.0 mi Calm Calm - N/A   Clear
2:53 AM 48.9 °F 39.0 °F 69% 30.32 in 10.0 mi SSE 3.5 mph - N/A   Partly Cloudy
3:53 AM 48.9 °F 39.9 °F 71% 30.31 in 10.0 mi SSE 4.6 mph - N/A   Overcast
4:53 AM 50.0 °F 41.0 °F 71% 30.33 in 10.0 mi Calm Calm - 0.00 in   Overcast
5:53 AM 48.9 °F 44.1 °F 83% 30.32 in 10.0 mi South 3.5 mph - 0.01 in Rain Light Rain
6:53 AM 48.9 °F 46.0 °F 90% 30.34 in 10.0 mi South 3.5 mph - 0.00 in   Overcast
7:53 AM 48.9 °F 46.0 °F 90% 30.34 in 9.0 mi Variable 3.5 mph - 0.00 in   Overcast
8:53 AM 50.0 °F 44.1 °F 80% 30.36 in 10.0 mi SSE 6.9 mph - N/A   Clear
9:53 AM 52.0 °F 44.1 °F 74% 30.36 in 10.0 mi SE 5.8 mph - N/A   Clear
10:54 AM 52.0 °F 43.0 °F 71% 30.37 in 10.0 mi South 5.8 mph - N/A   Unknown
11:53 AM 53.1 °F 43.0 °F 69% 30.36 in 10.0 mi South 6.9 mph - N/A   Partly Cloudy
12:53 PM 54.0 °F 42.1 °F 64% 30.33 in 10.0 mi South 6.9 mph - N/A   Mostly Cloudy
1:53 PM 54.0 °F 41.0 °F 62% 30.30 in 10.0 mi South 8.1 mph - N/A   Overcast
2:53 PM 54.0 °F 41.0 °F 62% 30.27 in 10.0 mi SSE 6.9 mph - N/A   Clear
3:53 PM 55.0 °F 42.1 °F 62% 30.26 in 10.0 mi SE 8.1 mph - N/A   Clear
4:53 PM 55.9 °F 44.1 °F 64% 30.24 in 10.0 mi SE 9.2 mph - N/A   Clear
5:53 PM 54.0 °F 42.1 °F 64% 30.22 in 10.0 mi SE 5.8 mph - N/A   Clear
6:53 PM 52.0 °F 42.1 °F 69% 30.23 in 10.0 mi SE 5.8 mph - N/A   Clear
7:53 PM 53.1 °F 43.0 °F 69% 30.22 in 10.0 mi SE 5.8 mph - N/A   Partly Cloudy
8:53 PM 53.1 °F 42.1 °F 66% 30.20 in 10.0 mi SSE 4.6 mph - N/A   Mostly Cloudy
9:53 PM 54.0 °F 41.0 °F 62% 30.18 in 10.0 mi SE 11.5 mph 17.3 mph N/A   Mostly Cloudy
10:53 PM 54.0 °F 41.0 °F 62% 30.17 in 10.0 mi SSE 8.1 mph - N/A   Overcast
11:53 PM 53.1 °F 41.0 °F 64% 30.14 in 10.0 mi SE 8.1 mph - N/A   Mostly Cloudy